sat.trackr.live / text

‹ back to catalog

GSAT0218 (GALILEO 22)

NORAD 43058 · 2017-079D

PAYLOAD ACTIVE UNKNOWN

§ Identity

Operator
Country
ESA
Launch date
2017-12-12
Launch site
FRGUI
Launch vehicle
Mass (kg)
RCS (m²)

Purposes: earth_obs, nav

External: N2YO · Heavens-Above · Gunter

§ Orbital elements

Epoch: 2026-09-19T00:20:09.064320Z

Period
844.70 min
Inclination
55.0505°
Eccentricity
0.0004890
Mean motion
1.70474004 rev/d
Perigee alt
23,207.7 km
Apogee alt
23,236.7 km
Semi-major
29,600.3 km
B*
0.0000e+0
RAAN
218.9215°
Arg perigee
286.1652°
Mean anomaly
73.7546°
Rev number
5,461

§ Raw data

GSAT0218 (GALILEO 22)1 43058U 17079D   26262.01399380  .00000017  00000+0  00000+0 0  99912 43058  55.0505 218.9215 0004890 286.1652  73.7546  1.70474004 54616

JSON: /api/v1/satellites/43058 · /tle

For live sub-satellite position, see the globe view (requires WebGL).

§ Visibility from observer

Set your observer location to see the next 7 days of passes ≥ 10°. The values pass through the URL so the page stays shareable.

No JS? Fill the form by hand. The geolocation button needs JavaScript.